Notices

What's New in latest Release from April 7th, 2021:

- Updated Glossary, including Speed of Maximum Gust, and Total Hourly Precipitation

- Updated national and regional climate services offices contacts and prices information

- Addition of station inventory lists for 1981-2010, 1971-2000, and 1961-1990 Normals.

If you haven't already, please take our survey and provide feedback about our website: https://eccc.sondage-survey.ca/f/LanguageSelection.aspx?s=442ca660-fcf1-47c0-95a9-59707d6fd709

Hourly Data Report for April 09, 2020

MIRAMICHI RCS
NEW BRUNSWICK
Current Station Operator: ECCC - MSC

47°00'34.000" N
65°27'54.000" W
33.00 m
8100989
71744
ACQ

Download Data

Hourly Data (April 2020)
Hourly Data Report for April 9, 2020
TIME
LST
Temp Definition
°C
Dew Point Definition
°C
Rel Hum Definition
%
Precip. Amount Definition
mm

Wind Dir Definition
10's deg

Wind Spd Definition
km/h
Visibility Definition
km
Stn Press Definition
kPa
Hmdx Definition


Wind Chill Definition


Weather Definition


00:00 -3.9 -7.0 79 LegendMM 25 6   99.89   -7 LegendNANA
01:00 -4.2 -7.7 77 LegendMM 27 9   99.90   -8 LegendNANA
02:00 -4.8 -7.8 79 LegendMM 26 6   99.84   -8 LegendNANA
03:00 -5.6 -8.3 81 LegendMM 25 3   99.82   -7 LegendNANA
04:00 -6.9 -9.5 82 LegendMM 26 4   99.81   -9 LegendNANA
05:00 -7.2 -9.7 82 LegendMM 25 8   99.81   -11 LegendNANA
06:00 -6.7 -10.4 75 LegendMM 26 7   99.82   -10 LegendNANA
07:00 -5.1 -10.3 67 LegendMM 26 9   99.90   -9 LegendNANA
08:00 -1.7 -11.0 49 LegendMM 24 5   99.91   -4 LegendNANA
09:00 0.8 -9.9 44 LegendMM 21 8   99.90     LegendNANA
10:00 3.7 -14.3 25 LegendMM 24 11   99.86     LegendNANA
11:00 4.9 -13.7 25 LegendMM 22 8   99.79     LegendNANA
12:00 6.4 -14.2 21 LegendMM 26 5   99.69     LegendNANA
13:00 8.5 -11.4 23 LegendMM 25 3   99.64     LegendNANA
14:00 7.0 -11.8 25 LegendMM 14 7   99.54     LegendNANA
15:00 4.6 -6.4 45 LegendMM 10 14   99.48     LegendNANA
16:00 4.1 -6.0 48 LegendMM 8 22   99.39     LegendNANA
17:00 3.8 -5.1 52 LegendMM 10 17   99.39     LegendNANA
18:00 4.1 -4.9 52 LegendMM 12 12   99.43     LegendNANA
19:00 3.4 -4.5 56 LegendMM 13 11   99.40     LegendNANA
20:00 2.2 -3.3 67 LegendMM 9 9   99.43     LegendNANA
21:00 2.9 -3.7 62 LegendMM 15 14   99.37     LegendNANA
22:00 0.8 -0.4 92 LegendMM 12 11   99.27     LegendNANA
23:00 0.6 -0.8 90 LegendMM 11 17   99.15     LegendNANA

Notes on Data Quality.

Legend

  • E = Estimated
  • M = Missing
  • NA = Not Available*
  • [empty] = Indicates an unobserved value
Date modified: